Time,TemperatureF,DewpointF,PressureIn,WindDirection,WindDirectionDegrees,WindSpeedMPH,WindSpeedGustMPH,Humidity,HourlyPrecipIn,Conditions,Clouds,dailyrainin,SoftwareType,DateUTC
2013-10-05 00:01:00,66.2,64.4,30.02,ESE,118,0.0,0.0,94,0.00,,,0.00,Wunderground v.1.15,2013-10-05 04:01:00,
2013-10-05 00:02:00,66.1,64.3,30.03,ESE,118,0.0,0.0,94,0.00,,,0.00,Wunderground v.1.15,2013-10-05 04:02:00,
2013-10-05 00:04:00,66.1,64.3,30.03,ESE,118,0.0,0.0,94,0.00,,,0.00,Wunderground v.1.15,2013-10-05 04:04:00,
2013-10-05 00:05:00,66.1,64.3,30.03,ESE,118,0.0,0.0,94,0.00,,,0.00,Wunderground v.1.15,2013-10-05 04:05:00,
2013-10-05 00:11:00,65.9,64.1,30.02,ESE,118,0.0,0.0,94,0.00,,,0.00,Wunderground v.1.15,2013-10-05 04:11:00,
2013-10-05 00:16:00,65.8,64.0,30.02,ESE,118,0.0,0.0,94,0.00,,,0.00,Wunderground v.1.15,2013-10-05 04:16:00,
2013-10-05 00:20:00,65.6,63.8,30.02,ESE,118,0.0,0.0,94,0.00,,,0.00,Wunderground v.1.15,2013-10-05 04:20:00,
2013-10-05 00:25:00,65.4,63.6,30.02,ESE,118,0.0,0.0,94,0.00,,,0.00,Wunderground v.1.15,2013-10-05 04:25:00,
2013-10-05 00:31:00,65.3,63.5,30.02,ESE,117,0.0,0.0,94,0.00,,,0.00,Wunderground v.1.15,2013-10-05 04:31:00,
2013-10-05 00:36:00,65.1,63.3,30.02,ESE,118,0.0,0.0,94,0.00,,,0.00,Wunderground v.1.15,2013-10-05 04:36:00,
2013-10-05 00:42:00,65.1,63.3,30.02,ESE,118,0.0,0.0,94,0.00,,,0.00,Wunderground v.1.15,2013-10-05 04:42:00,
2013-10-05 00:48:00,65.2,63.4,30.02,ESE,118,0.0,0.0,94,0.00,,,0.00,Wunderground v.1.15,2013-10-05 04:48:00,
2013-10-05 00:53:00,65.2,63.4,30.02,ESE,117,0.0,0.0,94,0.00,,,0.00,Wunderground v.1.15,2013-10-05 04:53:00,
2013-10-05 00:59:00,65.3,63.5,30.02,ESE,118,0.0,0.0,94,0.00,,,0.00,Wunderground v.1.15,2013-10-05 04:59:00,
2013-10-05 01:04:00,65.2,63.4,30.02,ESE,118,0.0,0.0,94,0.00,,,0.00,Wunderground v.1.15,2013-10-05 05:04:00,
2013-10-05 01:10:00,65.2,63.4,30.02,ESE,117,0.0,0.0,94,0.00,,,0.00,Wunderground v.1.15,2013-10-05 05:10:00,
2013-10-05 01:15:00,65.2,63.7,30.02,ESE,118,0.0,0.0,95,0.00,,,0.00,Wunderground v.1.15,2013-10-05 05:15:00,
2013-10-05 01:21:00,65.1,63.3,30.02,ESE,118,0.0,0.0,94,0.00,,,0.00,Wunderground v.1.15,2013-10-05 05:21:00,
2013-10-05 01:26:00,64.8,63.0,30.02,ESE,118,0.0,0.0,94,0.00,,,0.00,Wunderground v.1.15,2013-10-05 05:26:00,
2013-10-05 01:31:00,64.7,63.2,30.02,ESE,118,0.0,0.0,95,0.00,,,0.00,Wunderground v.1.15,2013-10-05 05:31:00,
2013-10-05 01:36:00,64.6,62.8,30.02,ESE,117,0.0,0.0,94,0.00,,,0.00,Wunderground v.1.15,2013-10-05 05:36:00,
2013-10-05 01:42:00,64.5,62.7,30.02,ESE,117,0.0,0.0,94,0.00,,,0.00,Wunderground v.1.15,2013-10-05 05:42:00,
2013-10-05 01:47:00,64.5,63.0,30.02,ESE,118,0.0,0.0,95,0.00,,,0.00,Wunderground v.1.15,2013-10-05 05:47:00,
2013-10-05 01:53:00,64.5,63.0,30.02,ESE,118,0.0,0.0,95,0.00,,,0.00,Wunderground v.1.15,2013-10-05 05:53:00,
2013-10-05 01:59:00,64.5,63.0,30.02,ESE,117,0.0,0.0,95,0.00,,,0.00,Wunderground v.1.15,2013-10-05 05:59:00,
2013-10-05 02:04:00,64.5,63.0,30.02,ESE,117,0.0,0.0,95,0.00,,,0.00,Wunderground v.1.15,2013-10-05 06:04:00,
2013-10-05 02:10:00,64.5,63.0,30.02,ESE,118,0.0,0.0,95,0.00,,,0.00,Wunderground v.1.15,2013-10-05 06:10:00,
2013-10-05 02:15:00,64.6,63.1,30.02,ESE,117,0.0,0.0,95,0.00,,,0.00,Wunderground v.1.15,2013-10-05 06:15:00,
2013-10-05 02:20:00,64.7,63.2,30.02,ESE,118,0.0,0.0,95,0.00,,,0.00,Wunderground v.1.15,2013-10-05 06:20:00,
2013-10-05 02:25:00,64.7,63.2,30.02,ESE,117,0.0,0.0,95,0.00,,,0.00,Wunderground v.1.15,2013-10-05 06:25:00,
2013-10-05 02:31:00,64.8,63.3,30.02,ESE,117,0.0,0.0,95,0.00,,,0.00,Wunderground v.1.15,2013-10-05 06:31:00,
2013-10-05 02:36:00,64.8,63.3,30.02,ESE,117,0.0,0.0,95,0.00,,,0.00,Wunderground v.1.15,2013-10-05 06:36:00,
2013-10-05 02:42:00,64.9,63.4,30.02,ESE,118,0.0,0.0,95,0.00,,,0.00,Wunderground v.1.15,2013-10-05 06:42:00,
2013-10-05 02:47:00,64.9,63.4,30.02,ESE,118,0.0,0.0,95,0.00,,,0.00,Wunderground v.1.15,2013-10-05 06:47:00,
2013-10-05 02:53:00,65.0,63.5,30.02,ESE,117,0.0,0.0,95,0.00,,,0.00,Wunderground v.1.15,2013-10-05 06:53:00,
2013-10-05 02:59:00,65.1,63.6,30.01,ESE,118,0.0,0.0,95,0.00,,,0.00,Wunderground v.1.15,2013-10-05 06:59:00,
2013-10-05 03:04:00,65.2,63.7,30.01,ESE,118,0.0,0.0,95,0.00,,,0.00,Wunderground v.1.15,2013-10-05 07:04:00,
2013-10-05 03:10:00,65.3,63.8,30.01,ESE,118,0.0,0.0,95,0.00,,,0.00,Wunderground v.1.15,2013-10-05 07:10:00,
2013-10-05 03:16:00,65.4,63.9,30.01,ESE,118,0.0,0.0,95,0.00,,,0.00,Wunderground v.1.15,2013-10-05 07:16:00,
2013-10-05 03:21:00,65.4,63.9,30.01,ESE,118,0.0,0.0,95,0.00,,,0.00,Wunderground v.1.15,2013-10-05 07:21:00,
2013-10-05 03:26:00,65.4,63.9,30.01,ESE,118,0.0,0.0,95,0.00,,,0.00,Wunderground v.1.15,2013-10-05 07:26:00,
2013-10-05 03:32:00,65.4,63.9,30.01,ESE,118,0.0,0.0,95,0.00,,,0.00,Wunderground v.1.15,2013-10-05 07:32:00,
2013-10-05 03:37:00,65.4,63.9,30.01,ESE,118,0.0,0.0,95,0.00,,,0.01,Wunderground v.1.15,2013-10-05 07:37:00,
2013-10-05 03:43:00,65.6,64.4,30.00,ESE,117,0.0,0.0,96,0.00,,,0.01,Wunderground v.1.15,2013-10-05 07:43:00,
2013-10-05 03:49:00,65.7,64.5,30.00,ESE,117,0.0,0.0,96,0.00,,,0.01,Wunderground v.1.15,2013-10-05 07:49:00,
2013-10-05 03:54:00,65.7,64.5,30.00,ESE,117,0.0,0.0,96,0.00,,,0.01,Wunderground v.1.15,2013-10-05 07:54:00,
2013-10-05 04:00:00,65.8,64.6,30.01,ESE,118,0.0,0.0,96,0.00,,,0.02,Wunderground v.1.15,2013-10-05 08:00:00,
2013-10-05 04:05:00,65.8,64.6,30.01,ESE,118,0.0,0.0,96,0.00,,,0.02,Wunderground v.1.15,2013-10-05 08:05:00,
2013-10-05 04:10:00,65.8,64.6,30.01,ESE,117,0.0,0.0,96,0.05,,,0.03,Wunderground v.1.15,2013-10-05 08:10:00,
2013-10-05 04:16:00,65.9,64.7,30.01,ESE,117,0.0,0.0,96,0.08,,,0.04,Wunderground v.1.15,2013-10-05 08:16:00,
2013-10-05 04:21:00,65.9,64.7,30.00,ESE,118,0.0,0.0,96,0.10,,,0.05,Wunderground v.1.15,2013-10-05 08:21:00,
2013-10-05 04:26:00,65.9,64.7,30.00,ESE,118,0.0,0.0,96,0.08,,,0.05,Wunderground v.1.15,2013-10-05 08:26:00,
2013-10-05 04:32:00,65.9,64.7,30.00,ESE,117,0.0,0.0,96,0.07,,,0.06,Wunderground v.1.15,2013-10-05 08:32:00,
2013-10-05 04:37:00,65.9,64.7,30.01,ESE,117,0.0,0.0,96,0.07,,,0.07,Wunderground v.1.15,2013-10-05 08:37:00,
2013-10-05 04:43:00,65.9,64.7,30.02,ESE,118,0.0,0.0,96,0.07,,,0.07,Wunderground v.1.15,2013-10-05 08:43:00,
2013-10-05 04:49:00,65.9,64.7,30.01,ESE,118,0.0,0.0,96,0.06,,,0.08,Wunderground v.1.15,2013-10-05 08:49:00,
2013-10-05 04:54:00,65.9,64.7,30.01,ESE,117,0.0,0.0,96,0.06,,,0.08,Wunderground v.1.15,2013-10-05 08:54:00,
2013-10-05 05:00:00,65.9,64.7,30.01,ESE,118,0.0,0.0,96,0.05,,,0.09,Wunderground v.1.15,2013-10-05 09:00:00,
2013-10-05 05:05:00,65.9,64.7,30.02,ESE,117,0.0,0.0,96,0.05,,,0.09,Wunderground v.1.15,2013-10-05 09:05:00,
2013-10-05 05:10:00,65.8,64.6,30.02,ESE,118,0.0,0.0,96,0.05,,,0.09,Wunderground v.1.15,2013-10-05 09:10:00,
2013-10-05 05:15:00,65.6,64.4,30.02,ESE,117,0.0,2.0,96,0.05,,,0.10,Wunderground v.1.15,2013-10-05 09:15:00,
2013-10-05 05:21:00,65.3,63.8,30.02,ESE,118,0.0,0.0,95,0.09,,,0.11,Wunderground v.1.15,2013-10-05 09:21:00,
2013-10-05 05:26:00,65.0,63.5,30.02,ESE,118,0.0,3.0,95,0.11,,,0.12,Wunderground v.1.15,2013-10-05 09:26:00,
2013-10-05 05:32:00,64.8,63.3,30.02,ESE,118,0.0,0.0,95,0.09,,,0.13,Wunderground v.1.15,2013-10-05 09:32:00,
2013-10-05 05:37:00,64.6,63.1,30.02,ESE,117,0.0,0.0,95,0.09,,,0.14,Wunderground v.1.15,2013-10-05 09:37:00,
2013-10-05 05:43:00,64.4,62.9,30.02,ESE,117,0.0,0.0,95,0.11,,,0.15,Wunderground v.1.15,2013-10-05 09:43:00,
2013-10-05 05:49:00,64.3,63.1,30.02,ESE,117,0.0,0.0,96,0.13,,,0.16,Wunderground v.1.15,2013-10-05 09:49:00,
2013-10-05 05:54:00,64.3,63.1,30.03,ESE,118,0.0,0.0,96,0.13,,,0.17,Wunderground v.1.15,2013-10-05 09:54:00,
2013-10-05 06:00:00,64.1,62.9,30.03,ESE,117,0.0,0.0,96,0.12,,,0.18,Wunderground v.1.15,2013-10-05 10:00:00,
2013-10-05 06:05:00,64.1,62.9,30.03,ESE,118,0.0,0.0,96,0.21,,,0.20,Wunderground v.1.15,2013-10-05 10:05:00,
2013-10-05 06:10:00,64.0,62.8,30.03,ESE,118,0.0,0.0,96,0.16,,,0.21,Wunderground v.1.15,2013-10-05 10:10:00,
2013-10-05 06:16:00,64.0,62.8,30.04,ESE,117,0.0,0.0,96,0.20,,,0.23,Wunderground v.1.15,2013-10-05 10:16:00,
2013-10-05 06:21:00,63.9,62.7,30.04,ESE,118,0.0,0.0,96,0.20,,,0.24,Wunderground v.1.15,2013-10-05 10:21:00,
2013-10-05 06:26:00,63.9,62.7,30.04,ESE,118,0.0,0.0,96,0.29,,,0.27,Wunderground v.1.15,2013-10-05 10:26:00,
2013-10-05 06:32:00,63.9,62.7,30.04,ESE,117,0.0,1.0,96,0.25,,,0.29,Wunderground v.1.15,2013-10-05 10:32:00,
2013-10-05 06:38:00,63.9,62.7,30.03,ESE,117,0.0,1.0,96,0.26,,,0.32,Wunderground v.1.15,2013-10-05 10:38:00,
2013-10-05 06:43:00,64.0,62.8,30.03,ESE,117,0.0,0.0,96,0.19,,,0.34,Wunderground v.1.15,2013-10-05 10:43:00,
2013-10-05 06:49:00,64.0,62.8,30.02,ESE,117,0.0,0.0,96,0.15,,,0.35,Wunderground v.1.15,2013-10-05 10:49:00,
2013-10-05 06:55:00,64.1,62.9,30.02,ESE,118,0.0,0.0,96,0.14,,,0.36,Wunderground v.1.15,2013-10-05 10:55:00,
2013-10-05 07:01:00,64.1,62.9,30.02,ESE,117,0.0,0.0,96,0.07,,,0.37,Wunderground v.1.15,2013-10-05 11:01:00,
2013-10-05 07:06:00,64.2,63.0,30.02,ESE,118,0.0,0.0,96,0.07,,,0.37,Wunderground v.1.15,2013-10-05 11:06:00,
2013-10-05 07:12:00,64.2,63.0,30.03,ESE,117,0.0,0.0,96,0.05,,,0.37,Wunderground v.1.15,2013-10-05 11:12:00,
2013-10-05 07:17:00,64.2,63.0,30.02,ESE,117,0.0,0.0,96,0.00,,,0.37,Wunderground v.1.15,2013-10-05 11:17:00,
2013-10-05 07:23:00,64.2,63.0,30.03,ESE,117,0.0,0.0,96,0.00,,,0.37,Wunderground v.1.15,2013-10-05 11:23:00,
2013-10-05 07:29:00,64.1,62.9,30.03,ESE,118,0.0,0.0,96,0.00,,,0.38,Wunderground v.1.15,2013-10-05 11:29:00,
2013-10-05 07:34:00,64.1,62.9,30.03,ESE,117,0.0,0.0,96,0.00,,,0.38,Wunderground v.1.15,2013-10-05 11:34:00,
2013-10-05 07:40:00,64.1,62.9,30.03,ESE,118,0.0,0.0,96,0.04,,,0.39,Wunderground v.1.15,2013-10-05 11:40:00,
2013-10-05 07:46:00,64.1,62.9,30.03,ESE,118,0.0,0.0,96,0.07,,,0.40,Wunderground v.1.15,2013-10-05 11:46:00,
2013-10-05 07:52:00,64.1,62.9,30.03,ESE,117,0.0,0.0,96,0.07,,,0.40,Wunderground v.1.15,2013-10-05 11:52:00,
2013-10-05 07:57:00,64.1,62.9,30.02,ESE,118,0.0,0.0,96,0.05,,,0.40,Wunderground v.1.15,2013-10-05 11:57:00,
2013-10-05 08:03:00,64.0,62.8,30.02,ESE,117,0.0,0.0,96,0.00,,,0.40,Wunderground v.1.15,2013-10-05 12:03:00,
2013-10-05 08:09:00,64.0,62.8,30.02,ESE,117,0.0,0.0,96,0.00,,,0.40,Wunderground v.1.15,2013-10-05 12:09:00,
2013-10-05 08:14:00,64.0,62.8,30.02,ESE,117,0.0,0.0,96,0.00,,,0.40,Wunderground v.1.15,2013-10-05 12:14:00,
2013-10-05 08:20:00,64.1,62.9,30.02,ESE,117,0.0,0.0,96,0.00,,,0.40,Wunderground v.1.15,2013-10-05 12:20:00,
2013-10-05 08:26:00,64.1,62.9,30.02,ESE,117,0.0,0.0,96,0.00,,,0.40,Wunderground v.1.15,2013-10-05 12:26:00,
2013-10-05 08:31:00,64.1,62.9,30.02,ESE,117,0.0,0.0,96,0.00,,,0.40,Wunderground v.1.15,2013-10-05 12:31:00,
2013-10-05 08:37:00,64.1,62.9,30.02,ESE,118,0.0,0.0,96,0.00,,,0.40,Wunderground v.1.15,2013-10-05 12:37:00,
2013-10-05 08:42:00,64.1,62.9,30.02,ESE,118,0.0,0.0,96,0.00,,,0.40,Wunderground v.1.15,2013-10-05 12:42:00,
2013-10-05 08:47:00,64.1,62.9,30.02,ESE,117,0.0,0.0,96,0.00,,,0.40,Wunderground v.1.15,2013-10-05 12:47:00,
2013-10-05 08:53:00,64.2,63.0,30.00,ESE,117,0.0,0.0,96,0.00,,,0.40,Wunderground v.1.15,2013-10-05 12:53:00,
2013-10-05 08:59:00,64.3,63.1,30.00,ESE,117,0.0,0.0,96,0.00,,,0.40,Wunderground v.1.15,2013-10-05 12:59:00,
2013-10-05 09:04:00,64.4,63.2,30.00,ESE,117,0.0,0.0,96,0.00,,,0.40,Wunderground v.1.15,2013-10-05 13:04:00,
2013-10-05 09:10:00,64.6,63.4,29.99,ESE,117,0.0,0.0,96,0.00,,,0.40,Wunderground v.1.15,2013-10-05 13:10:00,
2013-10-05 09:15:00,64.7,63.5,30.00,ESE,118,0.0,1.0,96,0.00,,,0.40,Wunderground v.1.15,2013-10-05 13:15:00,
2013-10-05 09:21:00,64.8,63.6,30.00,ESE,118,0.0,0.0,96,0.00,,,0.40,Wunderground v.1.15,2013-10-05 13:21:00,
2013-10-05 09:26:00,64.9,63.7,30.00,ESE,118,0.0,0.0,96,0.00,,,0.40,Wunderground v.1.15,2013-10-05 13:26:00,
2013-10-05 09:31:00,65.0,63.8,30.00,ESE,118,0.0,0.0,96,0.00,,,0.40,Wunderground v.1.15,2013-10-05 13:31:00,
2013-10-05 09:37:00,65.1,63.9,30.00,ESE,118,0.0,0.0,96,0.00,,,0.40,Wunderground v.1.15,2013-10-05 13:37:00,
2013-10-05 09:43:00,65.3,64.4,30.00,ESE,118,0.0,0.0,97,0.00,,,0.40,Wunderground v.1.15,2013-10-05 13:43:00,
2013-10-05 09:49:00,65.4,64.2,30.01,ESE,118,0.0,0.0,96,0.00,,,0.40,Wunderground v.1.15,2013-10-05 13:49:00,
2013-10-05 09:54:00,65.5,64.3,30.01,ESE,118,0.0,0.0,96,0.00,,,0.40,Wunderground v.1.15,2013-10-05 13:54:00,
2013-10-05 09:59:00,65.7,64.8,30.01,ESE,118,0.0,0.0,97,0.00,,,0.40,Wunderground v.1.15,2013-10-05 13:59:00,
2013-10-05 10:05:00,66.0,65.1,30.01,ESE,118,0.0,0.0,97,0.00,,,0.40,Wunderground v.1.15,2013-10-05 14:05:00,
2013-10-05 10:11:00,66.5,65.6,30.01,ESE,118,0.0,0.0,97,0.00,,,0.40,Wunderground v.1.15,2013-10-05 14:11:00,
2013-10-05 10:16:00,66.5,65.6,30.01,ESE,118,0.0,0.0,97,0.00,,,0.40,Wunderground v.1.15,2013-10-05 14:16:00,
2013-10-05 10:22:00,66.7,65.8,30.00,ESE,118,0.0,0.0,97,0.00,,,0.40,Wunderground v.1.15,2013-10-05 14:22:00,
2013-10-05 10:27:00,67.0,66.1,30.00,ESE,118,0.0,0.0,97,0.00,,,0.40,Wunderground v.1.15,2013-10-05 14:27:00,
2013-10-05 10:33:00,67.1,66.2,30.01,ESE,118,0.0,0.0,97,0.00,,,0.40,Wunderground v.1.15,2013-10-05 14:33:00,
2013-10-05 10:39:00,67.2,66.0,30.01,ESE,118,0.0,0.0,96,0.00,,,0.40,Wunderground v.1.15,2013-10-05 14:39:00,
2013-10-05 10:44:00,67.4,66.2,30.01,ESE,118,0.0,0.0,96,0.00,,,0.40,Wunderground v.1.15,2013-10-05 14:44:00,
2013-10-05 10:50:00,67.5,66.3,30.01,ESE,118,0.0,0.0,96,0.00,,,0.40,Wunderground v.1.15,2013-10-05 14:50:00,
2013-10-05 10:55:00,67.6,66.4,30.00,ESE,118,0.0,1.0,96,0.00,,,0.40,Wunderground v.1.15,2013-10-05 14:55:00,
2013-10-05 11:01:00,67.7,66.2,30.00,ESE,119,1.0,1.0,95,0.00,,,0.40,Wunderground v.1.15,2013-10-05 15:01:00,
2013-10-05 11:06:00,68.0,66.5,30.00,ESE,119,1.0,4.0,95,0.00,,,0.40,Wunderground v.1.15,2013-10-05 15:06:00,
2013-10-05 11:11:00,68.0,66.5,30.00,SE,128,1.0,1.0,95,0.00,,,0.40,Wunderground v.1.15,2013-10-05 15:11:00,
2013-10-05 11:16:00,68.2,66.7,30.00,SE,130,2.0,4.0,95,0.00,,,0.40,Wunderground v.1.15,2013-10-05 15:16:00,
2013-10-05 11:22:00,68.4,66.6,30.00,SE,132,1.0,1.0,94,0.00,,,0.40,Wunderground v.1.15,2013-10-05 15:22:00,
2013-10-05 11:27:00,68.8,67.0,30.00,SE,140,1.0,3.0,94,0.00,,,0.40,Wunderground v.1.15,2013-10-05 15:27:00,
2013-10-05 11:33:00,69.3,67.5,30.00,SSE,148,2.0,5.0,94,0.00,,,0.40,Wunderground v.1.15,2013-10-05 15:33:00,